Location: Firdgum
(53.2488°N, 5.5615°E)
Time: 00:29:26
(UTC+00:00)

Cosmos 2034 Rocket - Pass Details

Date: 08 December 2019
Orbit: 957 x 1001 km, 82.9° (Epoch: 27 January)

Event Time Altitude Azimuth Distance (km) Brightness Sun altitude
Rises 05:38:32 0° 217° (SW) 3,689 6.8 -16.7°
Reaches altitude 10° 05:41:15 10° 226° (SW) 2,750 6.1 -16.3°
Maximum altitude 05:47:04 38° 293° (WNW) 1,487 4.5 -15.5°
Drops below altitude 10° 05:52:59 10° 0° (N) 2,785 6.2 -14.6°
Sets 05:55:45 0° 9° (N) 3,740 7.0 -14.2°
